Temperature
21 20 20 19 19 18 18 18 18 18 17 17 17 17 17 17 17 17 17 17 17 17 17 17 17 17 17 17 17 17 17 17 17 17 17 17 17 17 17 17 17 17 17
21 20 20 19 19 18 18 18 18 18 17 17 17 17 17 17 17 17 17 17 17 17 17 17 17 17 17 17 17 17 17 17 17 17 17 18 18 17 17 17 17 17 17
22 21 20 19 19 18 18 18 18 18 18 17 17 17 17 17 17 17 17 17 17 17 17 17 17 17 17 17 17 17 17 17 17 17 17 18 18 17 17 17 17 16 16
22 21 21 20 19 18 18 18 18 18 18 17 17 17 17 17 17 17 17 17 17 17 17 17 17 17 17 17 16 16 16 16 16 17 16 16 17 17 17 17 17 16 16
23 22 21 20 19 19 18 18 18 18 18 17 17 17 17 17 17 17 17 17 17 17 17 17 17 17 16 16 16 16 16 16 16 16 16 16 16 16 17 17 16 16 16
23 22 21 20 19 19 18 18 17 18 17 17 17 17 17 16 16 16 16 16 17 16 16 16 16 16 16 16 16 16 16 16 16 16 16 16 16 16 16 17 16 16 16
23 22 21 20 19 19 18 18 17 17 17 17 17 17 17 16 16 16 16 16 16 16 16 16 16 16 16 16 16 16 16 16 16 16 16 16 16 16 16 16 16 16 16
22 22 21 20 19 19 18 18 17 17 17 17 17 17 16 16 16 16 16 16 16 16 16 16 16 16 16 16 16 15 16 16 15 15 15 16 15 15 15 16 16 16 16
22 22 21 20 20 19 18 18 17 17 17 17 17 16 16 16 16 16 15 15 15 15 16 16 16 16 16 16 15 15 15 15 15 15 15 15 15 15 15 15 15 15 16
23 22 21 20 20 19 18 18 17 17 17 17 16 16 16 16 16 15 15 15 15 15 15 15 15 15 15 15 15 15 15 15 15 15 15 15 15 15 15 15 15 15 15
23 22 21 20 20 19 18 18 17 17 17 17 16 16 16 16 15 15 15 15 15 15 15 15 15 15 15 15 15 15 15 15 15 15 15 15 15 15 15 15 15 15 15
23 22 21 20 20 19 18 18 17 17 17 17 16 16 16 16 15 15 15 15 15 15 15 15 15 15 15 15 15 15 15 14 14 14 14 14 14 14 14 14 14 14 14
22 22 21 20 19 19 18 18 17 17 17 16 16 16 16 16 15 15 15 15 15 15 15 15 15 15 14 14 14 14 14 14 14 14 14 14 14 14 14 14 14 14 14
21 21 21 20 19 19 18 18 17 17 17 16 16 16 16 16 15 15 15 15 15 15 14 14 14 14 14 14 14 14 14 14 14 14 14 13 13 13 13 13 13 13 13
21 21 20 20 19 18 18 18 17 17 17 16 16 16 16 16 15 15 15 15 14 14 14 14 14 14 14 14 14 14 14 14 13 13 13 13 13 13 13 13 13 13 13
21 20 20 19 19 18 18 17 17 17 17 16 16 16 15 15 15 15 14 14 14 14 14 14 13 13 13 14 14 14 13 13 13 13 13 13 13 13 13 13 13 13 13
21 20 19 19 18 18 18 17 17 17 17 16 16 15 15 15 15 14 14 14 13 13 13 13 13 13 13 14 14 14 13 13 13 13 13 13 13 13 13 13 13 13 13
20 20 19 18 18 18 18 17 17 17 16 16 15 15 15 14 14 14 14 13 13 13 13 13 13 13 13 13 13 13 13 13 12 12 12 12 12 12 12 12 12 12 12
19 19 18 18 18 18 17 17 16 16 16 15 15 15 14 14 14 14 14 13 13 13 13 13 13 13 13 13 13 13 13 12 12 12 12 12 12 12 12 12 12 12 12
19 18 18 18 18 17 17 16 16 16 15 15 15 14 14 14 14 14 13 13 13 13 13 13 12 12 12 12 12 12 12 12 12 12 12 12 12 12 12 11 11 11 11
18 18 17 17 17 17 16 16 16 15 15 15 14 14 14 14 14 13 13 13 13 12 12 12 12 12 12 12 12 12 12 12 11 11 11 11 11 12 11 11 11 11 11
17 17 17 17 17 16 16 15 15 15 14 14 14 14 14 13 13 13 13 13 12 12 12 12 12 12 12 12 12 12 12 11 11 11 11 11 11 11 11 11 11 11 11
17 17 17 16 16 16 15 15 15 14 14 14 14 13 13 13 13 13 12 12 12 12 12 12 12 12 12 12 11 11 11 11 11 11 11 11 11 11 11 10 10 10 10
17 17 16 16 16 15 15 15 14 14 14 14 13 13 13 13 13 12 12 12 12 12 12 12 12 12 12 11 11 11 11 11 11 10 10 10 10 10 10 10 10 10 10
17 16 16 16 16 15 15 14 14 14 14 13 13 13 13 13 12 12 12 12 12 12 12 11 11 11 11 11 11 10 10 10 10 10 10 10 10 10 10 10 10 9 9
16 16 16 16 15 15 14 14 14 14 14 13 13 13 13 12 12 12 12 12 12 11 11 11 11 11 11 11 11 11 10 10 10 10 10 10 10 10 10 9 9 9 9
Wind_Speed
5 4 4 3 3 2 1 2 1 0 1 1 2 1 1 1 1 1 1 1 1 1 2 2 1 2 2 2 2 2 2 2 1 2 2 2 4 4 3 3 3 3 4
5 5 4 3 3 2 2 3 2 0 1 1 1 2 2 2 1 1 1 1 1 2 1 1 2 1 2 2 2 2 2 2 1 2 2 2 2 3 3 3 3 3 3
6 6 5 4 3 3 2 2 1 1 0 1 1 1 1 2 1 1 1 1 1 1 2 1 2 2 2 1 2 2 2 2 2 2 2 2 1 1 2 3 3 2 2
6 6 6 5 4 4 3 2 2 1 0 0 1 2 2 2 2 2 1 1 1 1 1 1 1 2 2 2 3 1 2 2 2 2 2 3 3 2 1 2 2 3 3
6 5 5 5 4 4 3 3 2 1 1 0 1 2 2 2 1 1 1 2 1 1 1 1 1 2 2 2 2 2 3 2 3 2 2 2 3 4 3 3 2 2 2
6 6 6 5 5 4 3 3 3 2 1 0 0 1 2 2 3 2 2 1 1 1 1 1 2 2 2 2 2 2 2 2 3 3 3 3 3 3 4 4 3 3 2
6 6 6 6 5 4 3 3 3 2 1 1 1 1 2 2 2 2 1 2 2 1 2 2 2 2 2 2 2 2 2 2 3 3 3 3 3 3 4 4 4 3 2
6 6 6 6 6 5 4 3 3 2 1 1 0 0 2 2 1 2 2 1 2 2 2 1 1 2 2 2 2 2 2 2 3 3 3 3 3 3 3 3 3 3 3
6 6 6 6 6 5 5 4 4 3 2 1 1 0 0 1 2 1 1 1 1 1 1 1 1 1 2 2 3 2 3 3 3 3 3 3 3 3 3 3 4 4 4
7 6 5 6 5 5 5 4 4 3 2 2 1 1 1 0 1 1 1 1 1 1 1 1 1 1 1 1 2 2 2 3 3 3 3 3 3 3 3 3 4 4 5
7 6 5 5 5 5 5 5 4 3 2 1 1 1 1 0 0 1 1 1 0 0 1 1 1 2 2 2 2 3 3 3 3 3 3 3 4 4 3 3 3 3 4
6 6 6 6 5 5 5 4 4 3 2 2 1 1 1 0 0 1 1 1 0 0 0 1 2 2 2 2 3 3 3 3 3 4 4 4 3 3 4 3 4 3 4
6 6 6 5 5 4 4 4 3 3 2 2 2 1 1 1 0 0 1 1 1 1 1 1 2 3 3 3 3 4 4 4 4 4 4 4 3 4 3 4 3 3 3
6 6 6 5 5 4 4 3 3 2 2 2 2 1 1 1 0 0 1 1 1 1 2 2 2 3 3 4 4 4 4 4 4 4 4 3 3 3 3 3 3 3 3
6 5 5 5 5 4 4 3 3 2 2 2 1 1 0 0 0 0 1 1 1 1 2 2 2 3 3 3 4 5 5 4 4 4 3 3 2 4 4 4 4 4 4
6 6 5 5 5 4 4 4 3 2 2 2 1 1 0 0 0 0 0 0 1 1 2 2 3 3 3 5 6 6 5 4 4 4 4 3 2 1 1 3 4 5 5
6 6 6 5 4 4 4 4 3 2 2 2 1 1 1 0 0 1 0 1 1 1 2 2 3 3 4 5 5 6 5 4 4 4 4 4 3 3 3 2 2 3 4
6 6 5 5 4 4 4 4 3 3 2 1 1 0 1 1 1 1 1 1 1 2 2 2 3 3 4 5 5 6 5 4 4 4 4 3 3 3 4 4 4 4 3
6 5 5 5 4 5 5 4 4 3 2 1 1 0 1 1 1 1 1 1 2 2 2 2 2 3 3 4 5 6 4 3 4 4 3 3 3 3 4 4 5 5 5
6 5 5 5 5 5 4 4 3 2 2 1 1 1 1 1 1 2 2 2 2 3 3 2 3 3 3 3 4 5 3 4 4 3 3 1 3 3 4 5 5 6 6
6 6 5 5 5 5 4 3 2 2 1 1 1 1 1 1 1 2 2 2 3 3 4 4 3 3 2 1 1 3 3 4 4 4 4 3 3 3 4 6 6 6 7
6 6 5 4 4 4 4 3 2 1 1 1 1 1 1 2 1 1 2 2 3 3 3 3 3 2 1 1 1 1 3 5 4 4 4 4 3 4 6 5 5 6 7
6 5 5 5 4 3 3 2 1 1 0 0 0 0 1 1 2 2 2 3 3 3 3 3 3 3 2 1 2 2 3 4 4 4 4 4 4 6 5 4 5 5 5
5 5 5 5 4 3 2 2 2 1 1 1 2 2 2 2 1 2 3 3 3 3 3 3 3 3 3 3 2 2 2 2 3 4 3 4 5 5 4 4 3 4 4
5 5 5 5 4 3 2 2 2 2 2 2 3 3 3 2 2 2 2 3 3 3 4 4 4 4 4 4 5 5 4 4 4 5 4 4 3 4 4 4 3 3 3
5 5 5 5 4 4 3 2 1 2 2 3 3 3 3 2 2 2 2 1 2 1 2 4 5 3 3 4 5 6 5 6 6 5 4 4 4 5 5 5 4 4 3
Wind_Direction
165 164 165 164 164 170 174 180 230 292 285 294 300 297 292 301 324 324 356 304 286 273 270 290 250 268 268 271 263 254 232 235 237 257 254 233 227 217 216 220 221 211 213
180 180 182 182 178 175 183 177 183 214 282 327 315 312 309 300 323 345 6 322 299 289 253 280 275 277 273 260 264 246 259 235 210 249 264 239 221 212 208 204 207 214 207
196 191 190 192 185 177 174 164 147 134 355 328 291 306 275 284 314 326 330 352 328 292 320 306 299 292 284 281 273 257 248 257 235 261 288 281 272 274 205 213 211 216 224
190 189 190 190 188 180 167 153 148 139 122 243 299 295 303 313 322 317 342 338 336 312 293 288 290 288 289 289 275 279 271 266 257 249 264 300 312 270 249 219 200 204 218
184 184 183 178 177 170 164 154 152 148 161 209 237 275 302 311 323 331 360 326 337 309 312 293 289 282 285 297 307 312 286 273 274 269 281 280 275 269 267 265 255 238 229
176 178 176 170 170 166 162 156 151 153 167 203 309 300 311 326 338 335 333 307 324 329 0 331 320 296 298 286 287 295 280 291 297 288 285 281 285 286 275 269 263 263 256
167 167 168 168 165 162 160 148 140 148 166 186 250 274 292 292 304 309 311 319 343 355 11 355 342 331 325 307 300 297 312 296 286 279 281 284 285 288 282 276 274 273 266
158 161 164 165 165 165 159 145 139 145 144 149 183 263 274 280 293 308 323 327 338 6 17 4 359 348 335 321 315 307 316 311 288 289 294 287 291 284 276 278 282 273 265
154 156 157 160 164 165 159 158 152 151 150 136 133 124 315 320 323 314 304 12 25 358 20 19 28 8 349 334 319 331 329 328 310 299 279 276 287 289 281 276 275 272 272
150 148 149 154 155 157 154 155 151 159 168 163 170 137 158 232 275 297 13 23 14 4 344 319 341 333 311 294 297 303 326 321 319 305 303 290 285 283 282 274 272 274 272
149 146 144 147 149 148 148 151 153 156 153 146 135 86 86 76 35 34 47 74 8 314 314 308 300 300 300 291 284 299 306 300 307 306 294 293 301 296 287 280 282 277 269
150 147 143 144 149 152 152 155 159 157 153 144 144 133 112 90 58 50 14 12 32 346 339 292 293 296 301 300 292 294 303 300 300 306 307 299 295 296 295 294 286 283 276
154 152 146 146 151 152 153 158 163 155 149 140 139 118 95 90 68 34 358 341 321 330 323 303 312 312 312 303 294 291 294 294 293 297 301 303 300 294 301 294 295 288 278
157 158 155 151 150 153 152 156 153 145 141 142 133 112 87 61 4 15 338 330 329 338 330 329 320 317 313 307 297 290 287 288 290 295 296 296 301 299 298 290 290 288 281
164 162 159 148 149 147 147 146 138 142 143 150 145 120 98 75 43 33 15 9 352 348 351 336 328 317 305 313 310 296 286 288 292 299 301 303 325 339 319 310 314 297 279
174 168 163 156 153 150 149 148 149 145 150 158 155 129 117 127 131 262 287 352 346 342 346 341 324 317 337 7 347 316 295 294 296 301 303 299 286 330 328 334 327 313 285
174 171 167 164 159 156 152 151 145 140 137 147 151 149 188 190 233 262 256 284 297 316 330 327 324 328 0 8 346 325 298 294 302 306 304 305 331 331 317 322 279 283 290
170 164 164 161 159 150 143 138 132 129 127 126 142 164 237 249 253 250 271 292 305 314 314 316 325 330 354 11 343 327 297 300 308 308 301 304 318 333 332 313 309 300 287
161 160 162 155 142 134 129 130 129 120 114 91 51 329 277 286 287 280 286 290 297 300 298 310 322 324 336 6 344 325 311 318 313 311 312 307 310 9 342 307 305 306 298
152 152 151 142 131 127 130 136 129 110 78 53 34 22 359 314 304 302 298 296 288 289 296 308 311 309 319 0 344 330 314 320 310 306 304 359 340 353 325 297 295 295 300
149 147 145 140 134 131 132 135 122 100 66 48 35 23 356 314 303 315 309 301 300 305 302 302 301 304 321 356 18 334 317 316 307 307 308 343 42 345 313 297 296 299 298
150 149 146 136 135 140 142 137 118 84 68 51 25 351 307 303 358 332 307 299 294 284 290 295 302 311 313 354 22 289 286 310 308 308 316 343 11 316 295 291 305 298 289
155 154 149 140 139 147 154 157 143 127 115 298 300 295 300 301 305 293 285 279 279 291 304 302 303 312 322 344 148 230 257 273 293 312 334 318 294 287 282 258 273 281 284
158 159 154 151 154 162 168 168 162 175 204 232 246 247 246 254 273 292 298 301 303 305 304 307 309 315 318 330 340 318 294 262 273 301 290 254 252 264 288 294 285 286 294
165 167 165 162 162 162 168 178 177 200 230 238 241 250 252 260 274 285 313 309 323 325 306 308 307 311 315 345 340 316 309 309 310 306 294 299 311 312 315 314 313 307 304
168 171 172 173 172 172 176 187 203 215 235 241 246 253 259 267 269 273 266 232 268 227 242 264 286 306 319 309 302 296 289 287 286 288 296 305 311 314 316 317 316 310 309
Height
1533 1535 1535 1535 1535 1534 1534 1534 1535 1534 1534 1534 1534 1533 1533 1532 1531 1531 1530 1530 1530 1530 1530 1530 1529 1529 1528 1527 1527 1526 1526 1526 1525 1525 1524 1523 1523 1522 1522 1522 1523 1523 1524
1532 1533 1534 1534 1534 1533 1532 1532 1533 1534 1533 1533 1533 1532 1532 1531 1531 1530 1529 1529 1529 1529 1529 1528 1528 1528 1527 1526 1526 1525 1525 1525 1524 1524 1523 1522 1522 1521 1521 1521 1521 1521 1522
1530 1531 1532 1533 1533 1532 1532 1532 1532 1532 1533 1533 1533 1532 1531 1530 1530 1529 1528 1528 1527 1527 1527 1527 1527 1526 1526 1526 1525 1524 1524 1524 1523 1523 1523 1522 1520 1519 1519 1519 1519 1519 1519
1528 1529 1530 1531 1532 1532 1532 1532 1532 1532 1531 1532 1532 1531 1531 1530 1529 1528 1528 1527 1526 1526 1526 1526 1525 1525 1525 1524 1524 1524 1523 1522 1522 1521 1520 1521 1520 1519 1518 1518 1517 1517 1517
1526 1528 1529 1530 1531 1532 1532 1532 1531 1531 1531 1531 1530 1530 1530 1529 1529 1528 1527 1526 1526 1525 1525 1525 1525 1524 1524 1523 1523 1522 1521 1521 1521 1520 1520 1519 1518 1518 1517 1516 1516 1515 1515
1524 1526 1528 1529 1530 1531 1531 1531 1531 1530 1530 1530 1529 1529 1528 1528 1527 1527 1526 1526 1526 1525 1524 1524 1523 1523 1523 1522 1521 1521 1520 1520 1519 1518 1518 1518 1518 1517 1516 1514 1513 1513 1513
1522 1525 1526 1528 1529 1530 1530 1531 1530 1530 1529 1529 1528 1528 1527 1527 1526 1526 1525 1525 1525 1524 1523 1523 1522 1522 1521 1521 1520 1520 1519 1518 1517 1517 1517 1517 1516 1515 1515 1513 1512 1511 1511
1521 1523 1525 1526 1528 1529 1529 1530 1529 1529 1529 1528 1528 1527 1526 1527 1526 1525 1525 1524 1524 1523 1522 1522 1521 1521 1520 1520 1519 1519 1518 1517 1516 1516 1515 1515 1514 1514 1513 1512 1511 1510 1510
1520 1522 1524 1525 1527 1528 1528 1528 1528 1528 1528 1527 1527 1526 1525 1525 1525 1524 1524 1523 1522 1522 1521 1521 1520 1520 1519 1519 1518 1518 1516 1516 1515 1515 1514 1513 1513 1512 1511 1511 1510 1510 1508
1519 1521 1523 1525 1526 1527 1527 1528 1528 1527 1527 1527 1526 1526 1524 1524 1523 1523 1522 1521 1520 1520 1520 1520 1519 1519 1518 1517 1517 1516 1515 1514 1514 1512 1511 1511 1511 1510 1510 1509 1509 1508 1508
1518 1520 1522 1524 1525 1526 1527 1527 1527 1527 1527 1526 1525 1524 1524 1523 1522 1522 1521 1520 1519 1519 1518 1518 1518 1518 1517 1516 1515 1515 1514 1513 1512 1511 1510 1509 1509 1508 1508 1507 1507 1506 1506
1518 1520 1521 1523 1525 1526 1526 1526 1526 1526 1526 1525 1524 1524 1523 1522 1522 1521 1520 1519 1518 1518 1517 1517 1517 1516 1516 1515 1515 1514 1513 1512 1510 1510 1508 1507 1507 1506 1506 1505 1504 1504 1503
1517 1519 1521 1522 1524 1525 1525 1525 1525 1525 1525 1524 1524 1523 1523 1522 1521 1521 1520 1519 1518 1517 1516 1516 1515 1515 1515 1514 1513 1512 1511 1510 1509 1508 1507 1506 1505 1504 1504 1503 1502 1502 1501
1517 1518 1520 1521 1523 1523 1524 1524 1524 1524 1524 1524 1523 1522 1521 1521 1521 1520 1519 1518 1517 1516 1515 1514 1514 1514 1513 1512 1511 1510 1509 1508 1507 1506 1505 1504 1503 1502 1501 1501 1500 1500 1499
1515 1517 1519 1520 1521 1522 1522 1522 1523 1523 1523 1522 1522 1521 1521 1520 1519 1519 1518 1517 1516 1515 1514 1513 1513 1512 1512 1511 1509 1509 1508 1506 1505 1504 1503 1502 1501 1500 1499 1499 1498 1497 1497
1514 1516 1517 1518 1519 1520 1520 1521 1521 1521 1521 1521 1521 1520 1520 1519 1518 1518 1517 1516 1515 1514 1513 1512 1512 1511 1510 1509 1507 1506 1505 1504 1503 1502 1501 1500 1499 1498 1497 1496 1495 1494 1494
1512 1514 1515 1516 1517 1518 1518 1519 1520 1520 1520 1520 1519 1519 1519 1518 1517 1517 1516 1515 1514 1513 1511 1511 1510 1509 1508 1507 1505 1504 1503 1502 1501 1500 1499 1499 1498 1496 1495 1493 1492 1491 1490
1511 1513 1514 1515 1516 1516 1517 1517 1518 1518 1519 1519 1518 1518 1517 1517 1516 1515 1515 1514 1513 1511 1510 1510 1509 1508 1507 1505 1504 1503 1501 1501 1499 1498 1497 1496 1495 1494 1492 1491 1490 1489 1488
1509 1511 1513 1514 1514 1515 1516 1516 1517 1517 1518 1517 1517 1516 1516 1515 1515 1514 1513 1512 1511 1510 1510 1509 1507 1506 1505 1504 1502 1501 1499 1498 1497 1496 1495 1493 1492 1491 1489 1488 1487 1486 1485
1508 1510 1511 1512 1513 1514 1514 1515 1516 1516 1516 1516 1515 1515 1514 1514 1513 1512 1511 1511 1510 1509 1509 1507 1506 1505 1503 1502 1500 1498 1497 1496 1495 1494 1493 1491 1490 1488 1487 1485 1484 1482 1482
1507 1509 1510 1511 1512 1512 1513 1514 1515 1515 1515 1515 1514 1514 1513 1512 1512 1511 1510 1509 1509 1508 1507 1506 1505 1503 1501 1500 1498 1497 1496 1495 1493 1493 1492 1490 1488 1486 1484 1482 1481 1479 1478
1506 1508 1509 1510 1511 1512 1512 1513 1514 1514 1514 1513 1513 1512 1512 1512 1511 1509 1508 1508 1507 1506 1505 1504 1503 1501 1500 1498 1496 1495 1494 1493 1491 1490 1490 1488 1485 1483 1481 1479 1478 1476 1474
1505 1507 1508 1508 1510 1511 1511 1512 1512 1512 1512 1512 1511 1511 1510 1510 1509 1508 1507 1506 1505 1505 1504 1503 1502 1500 1498 1496 1495 1493 1492 1491 1490 1488 1487 1485 1483 1480 1479 1477 1475 1473 1472
1504 1505 1506 1507 1508 1509 1510 1510 1510 1510 1510 1510 1509 1509 1509 1508 1507 1506 1506 1505 1504 1502 1501 1501 1499 1498 1496 1495 1493 1492 1491 1489 1488 1486 1484 1483 1481 1479 1477 1475 1473 1471 1469
1503 1504 1505 1506 1507 1508 1508 1508 1508 1508 1508 1508 1507 1507 1507 1506 1505 1504 1503 1502 1501 1500 1499 1498 1497 1496 1494 1493 1492 1490 1489 1488 1486 1484 1483 1482 1480 1478 1476 1474 1471 1469 1467
1501 1502 1503 1504 1505 1506 1506 1506 1506 1506 1506 1505 1505 1505 1505 1504 1503 1502 1502 1500 1499 1498 1497 1495 1494 1493 1492 1491 1490 1488 1487 1485 1484 1483 1482 1480 1478 1476 1474 1472 1470 1468 1466